Location: Limerick
(52.6800°N, 8.6400°W)
Time: 02:54:39
(UTC+00:00)

Amateur Radio Satellites - All Passes

Search period start: 06 December 2016 02:24
Search period end: 07 December 2016 02:24
Location: Limerick, 52.6800°N, 8.6400°W

Satellite Date Start Highest point End Downlink Frequencies (MHz)
Time Altitude Azimuth
BEESAT 06 Dec 02:27:51 02:32:36 66° 257° (WSW) 02:37:22 436.000
ITAMSAT 1 06 Dec 02:27:58 02:30:58 15° 86° (E) 02:33:57 435.822/435.867
M-CUBED/EXP-1 PRIME 06 Dec 02:28:18 02:32:08 34° 259° (WSW) 02:36:15 437.505
KKS-1 06 Dec 02:34:59 02:38:34 24° 60° (ENE) 02:42:11 437.445
STARS 06 Dec 02:43:10 02:45:55 16° 55° (NE) 02:48:40 437.465
TISAT 1 06 Dec 02:46:58 02:48:23 11° 274° (W) 02:49:48 437.305
JAS-2 06 Dec 02:47:16 02:49:06 12° 315° (NW) 02:50:55 435.910
ITUPSAT 1 06 Dec 02:55:39 03:00:09 39° 263° (W) 03:04:39 437.325
BUGSAT 1 06 Dec 02:57:41 03:00:00 15° 305° (NW) 03:02:19 437.445
AO-7 06 Dec 02:59:19 03:05:47 24° 88° (E) 03:12:12 29.400- 29.500
AO-85 06 Dec 03:00:14 03:04:53 50° 126° (SE) 03:09:12 145.980
YUBILEINY 06 Dec 03:23:40 03:27:24 13° 34° (NNE) 03:31:07 435.215
Gurwin Techsat 1B 06 Dec 03:31:35 03:36:47 55° 293° (WNW) 03:41:57 435.225
MOZHAYETS 4 06 Dec 03:37:38 03:42:09 55° 260° (W) 03:46:40
Oscar 19 06 Dec 03:39:05 03:43:32 29° 301° (WNW) 03:47:57 437.125/150
CUBESAT XI-V 06 Dec 03:39:39 03:43:43 33° 64° (ENE) 03:47:50 437.345
Cosmos 2499 06 Dec 03:41:15 03:48:23 27° 307° (NW) 03:55:39 435.465 / 435.565
O/OREOS (USA 219) 06 Dec 03:50:16 03:50:46 10° 264° (W) 03:51:15 437.305
GONETS M04 06 Dec 03:50:27 03:57:27 26° 307° (NW) 04:04:29
SO-50 06 Dec 04:02:41 04:07:14 56° 40° (NE) 04:11:40 436.795
ITAMSAT 1 06 Dec 04:06:01 04:11:15 85° 109° (ESE) 04:16:26 435.822/435.867
SWISSCUBE 06 Dec 04:06:58 04:07:16 10° 277° (W) 04:07:34 437.505
KKS-1 06 Dec 04:10:27 04:14:51 55° 259° (W) 04:19:17 437.445
BEESAT 06 Dec 04:10:41 04:11:20 10° 277° (W) 04:11:59 436.000
STARS 06 Dec 04:17:13 04:21:40 88° 255° (WSW) 04:26:10 437.465
BRITE-PL 06 Dec 04:31:02 04:34:34 17° 87° (E) 04:38:11 437.365/2234.400
AO-85 06 Dec 04:41:04 04:45:27 38° 325° (NW) 04:49:32 145.980
Cosmos 2504 06 Dec 04:43:57 04:49:32 18° 42° (NE) 04:55:00 435.465 / 435.565
AO-7 06 Dec 04:51:20 04:59:47 85° 111° (ESE) 05:08:11 29.400- 29.500
HORYU 2 06 Dec 05:10:23 05:13:48 21° 92° (E) 05:17:11 437.375
Gurwin Techsat 1B 06 Dec 05:13:20 05:15:40 13° 314° (NW) 05:18:01 435.225
CUBESAT XI-V 06 Dec 05:16:45 05:21:03 39° 263° (W) 05:25:23 437.345
YUBILEINY 06 Dec 05:19:20 05:27:31 39° 63° (ENE) 05:35:39 435.215
AIST 1 06 Dec 05:21:01 05:21:25 10° 55° (NE) 05:21:48
STRAND 1 06 Dec 05:32:11 05:36:18 25° 57° (ENE) 05:40:25 437.568
CUTE-I 06 Dec 05:38:49 05:41:58 16° 86° (E) 05:45:06 437.470
SO-50 06 Dec 05:43:31 05:47:29 30° 241° (WSW) 05:51:22 436.795
GOMX 1 06 Dec 05:45:52 05:50:45 33° 93° (E) 05:55:40 467.674
ITAMSAT 1 06 Dec 05:46:24 05:50:08 20° 306° (NW) 05:53:51 435.822/435.867
NOAA 18 06 Dec 05:46:29 05:48:32 12° 83° (E) 05:50:33 137.9125
STARS 06 Dec 05:56:37 05:58:42 13° 273° (W) 06:00:48 437.465
Cosmos 2491 06 Dec 05:57:00 06:03:33 24° 76° (ENE) 06:10:04 435.465 / 435.565
DOVE 4 06 Dec 05:58:21 06:02:19 21° 87° (E) 06:06:12 437.250
BEESAT 3 06 Dec 05:58:47 06:02:32 45° 125° (SE) 06:06:20 437.485
NOAA 15 06 Dec 06:01:47 06:06:07 25° 92° (E) 06:10:26 137.62
Cubesat XI-IV 06 Dec 06:03:55 06:08:14 24° 91° (E) 06:12:31 437.490
BRITE-PL 06 Dec 06:08:21 06:13:41 89° 105° (ESE) 06:19:19 437.365/2234.400
LilacSat-2 06 Dec 06:09:52 06:12:59 24° 93° (E) 06:16:04 437.200
AO-85 06 Dec 06:23:53 06:26:56 18° 348° (NNW) 06:29:52 145.980
BEESAT 2 06 Dec 06:27:22 06:31:07 43° 125° (SE) 06:34:56 435.950
Cosmos 2504 06 Dec 06:36:46 06:45:28 53° 69° (ENE) 06:53:45 435.465 / 435.565
RS-15 06 Dec 06:40:06 06:49:14 27° 100° (E) 06:58:35 29.354- 29.394
AO-7 06 Dec 06:44:39 06:51:50 34° 313° (NW) 06:59:02 29.400- 29.500
HORYU 2 06 Dec 06:46:20 06:50:43 56° 291° (WNW) 06:55:01 437.375
AIST 1 06 Dec 06:55:37 07:00:01 60° 76° (ENE) 07:04:23
STRAND 1 06 Dec 07:09:59 07:15:06 66° 257° (WSW) 07:20:14 437.568
YUBILEINY 06 Dec 07:16:13 07:24:54 65° 267° (W) 07:33:35 435.215
CUTE-I 06 Dec 07:17:28 07:22:51 85° 106° (ESE) 07:28:11 437.470
CINEMA 3 06 Dec 07:18:27 07:22:37 27° 92° (E) 07:26:38 145.822/145.860
GOMX 1 06 Dec 07:23:47 07:28:59 50° 293° (WNW) 07:34:18 467.674
NOAA 18 06 Dec 07:24:46 07:30:19 65° 103° (ESE) 07:35:48 137.9125
HO-68 06 Dec 07:25:50 07:31:53 28° 91° (E) 07:37:52 435.675
CUTE 1.7 + AOD 2 06 Dec 07:29:51 07:32:59 20° 90° (E) 07:36:07 437.475
DOVE 4 06 Dec 07:35:13 07:40:33 76° 287° (WNW) 07:45:47 437.250
BEESAT 3 06 Dec 07:36:39 07:40:17 34° 326° (NW) 07:43:58 437.485
CUBEBUG 2 06 Dec 07:39:22 07:41:05 12° 84° (E) 07:42:46 437.445
NOAA 15 06 Dec 07:41:06 07:46:18 61° 292° (WNW) 07:51:30 137.62
Cubesat XI-IV 06 Dec 07:43:28 07:48:47 65° 291° (WNW) 07:54:03 437.490
LilacSat-2 06 Dec 07:43:53 07:47:24 37° 292° (WNW) 07:50:54 437.200
CANX-2 06 Dec 07:47:23 07:51:13 32° 96° (E) 07:55:00 2200.000
BRITE-PL 06 Dec 07:47:47 07:51:36 21° 303° (WNW) 07:55:33 437.365/2234.400
Cosmos 2491 06 Dec 07:50:24 07:59:13 87° 97° (E) 08:08:01 435.465 / 435.565
AAUSAT CUBESAT 2 06 Dec 07:54:58 07:57:11 14° 87° (E) 07:59:23 437.432
BEESAT 2 06 Dec 08:05:18 08:09:01 36° 325° (NW) 08:12:46 435.950
AO-85 06 Dec 08:05:51 08:08:51 18° 13° (NNE) 08:11:43 145.980
PRISM 06 Dec 08:13:00 08:16:55 47° 68° (ENE) 08:20:53 437.425
SEEDS 06 Dec 08:13:09 08:17:01 35° 96° (E) 08:20:52 437.485
UWE-3 06 Dec 08:21:07 08:24:16 19° 89° (E) 08:27:22 435.000/436.395/437.385
COMPASS 1 06 Dec 08:23:57 08:27:41 31° 95° (E) 08:31:25 437.405
HORYU 2 06 Dec 08:25:15 08:26:21 11° 311° (NW) 08:27:26 437.375
Cosmos 2504 06 Dec 08:30:30 08:38:51 48° 273° (W) 08:46:51 435.465 / 435.565
AIST 1 06 Dec 08:34:08 08:37:11 18° 276° (W) 08:40:13
AO-7 06 Dec 08:38:06 08:42:12 15° 339° (NNW) 08:46:18 29.400- 29.500
UNISAT 6 06 Dec 08:43:03 08:47:02 29° 62° (ENE) 08:50:59 437.425
RS-15 06 Dec 08:47:53 08:59:45 77° 126° (SE) 09:12:06 29.354- 29.394
AIST 2 06 Dec 08:53:07 08:56:59 40° 123° (ESE) 09:00:55 435.215
STRAND 1 06 Dec 08:53:44 08:55:18 11° 277° (W) 08:56:52 437.568
CINEMA 3 06 Dec 08:55:15 09:00:00 49° 292° (WNW) 09:04:32 145.822/145.860
CUTE-I 06 Dec 08:58:24 09:02:19 21° 306° (NW) 09:06:13 437.470
ZACube-1 06 Dec 09:02:09 09:05:55 29° 94° (E) 09:09:35 437.345
GOMX 1 06 Dec 09:03:52 09:05:58 12° 312° (NW) 09:08:06 467.674
CUTE 1.7 + AOD 2 06 Dec 09:05:02 09:09:09 54° 290° (WNW) 09:13:16 437.475
NOAA 18 06 Dec 09:05:58 09:10:37 28° 304° (WNW) 09:15:15 137.9125
FUNcube-1 06 Dec 09:09:53 09:13:43 32° 95° (E) 09:17:28 145.935
TIGRISAT 06 Dec 09:12:29 09:16:57 46° 68° (ENE) 09:21:22 435.000
HO-68 06 Dec 09:13:06 09:20:20 78° 292° (WNW) 09:27:31 435.675
ANTELSAT 06 Dec 09:13:52 09:18:22 49° 69° (ENE) 09:22:50 437.575/2403.000
CUBEBUG 2 06 Dec 09:13:59 09:18:30 84° 104° (ESE) 09:22:49 437.445
DOVE 4 06 Dec 09:14:06 09:17:25 17° 308° (NW) 09:20:44 437.250
YUBILEINY 06 Dec 09:14:51 09:19:55 17° 291° (WNW) 09:25:00 435.215
BEESAT 3 06 Dec 09:16:31 09:18:59 16° 349° (N) 09:21:29 437.485
NOAA 15 06 Dec 09:22:26 09:25:08 14° 312° (NW) 09:27:50 137.62
CANX-2 06 Dec 09:23:16 09:27:04 33° 294° (WNW) 09:30:53 2200.000
Cubesat XI-IV 06 Dec 09:24:58 09:27:55 15° 312° (NW) 09:30:52 437.490
NANOSAT C BR1 06 Dec 09:25:05 09:26:12 11° 51° (NE) 09:27:19 145.865
AAUSAT CUBESAT 2 06 Dec 09:29:02 09:33:12 77° 285° (WNW) 09:37:20 437.432
QB50P2 06 Dec 09:29:45 09:31:49 13° 53° (NE) 09:33:53 145.880/145.840
POLYITAN 1 06 Dec 09:30:25 09:32:23 13° 53° (NE) 09:34:20 437.675
JAS-2 06 Dec 09:33:55 09:38:55 28° 58° (ENE) 09:43:32 435.910
CUSAT 1 06 Dec 09:36:52 09:39:22 26° 97° (E) 09:41:40 437.405
Cosmos 2499 06 Dec 09:36:55 09:42:46 19° 44° (NE) 09:48:25 435.465 / 435.565
Oscar 11 06 Dec 09:40:25 09:44:42 59° 101° (ESE) 09:48:57 145.826/435.025
QB50P1 06 Dec 09:42:42 09:45:18 16° 56° (NE) 09:47:55 145.935-145.965
BEESAT 2 06 Dec 09:45:17 09:47:51 16° 348° (NNW) 09:50:27 435.950
DUCHIFAT 1 06 Dec 09:45:47 09:48:13 15° 55° (NE) 09:50:39 145.980
AO-85 06 Dec 09:46:16 09:50:15 45° 37° (NE) 09:54:03 145.980
SEEDS 06 Dec 09:48:58 09:52:40 30° 295° (WNW) 09:56:20 437.485
PRISM 06 Dec 09:49:17 09:52:28 22° 267° (W) 09:55:41 437.425
Cosmos 2491 06 Dec 09:49:52 09:57:16 29° 304° (NW) 10:04:41 435.465 / 435.565
GONETS M04 06 Dec 09:56:49 10:03:11 22° 48° (NE) 10:09:33
UWE-3 06 Dec 09:56:50 10:01:09 58° 289° (WNW) 10:05:19 435.000/436.395/437.385
COMPASS 1 06 Dec 09:59:31 10:03:15 33° 294° (WNW) 10:07:00 437.405
POPSAT HIP 1 06 Dec 10:03:17 10:06:38 23° 60° (ENE) 10:09:59 437.405
UNISAT 6 06 Dec 10:19:03 10:23:34 47° 261° (W) 10:28:04 437.425
DANDE 06 Dec 10:21:00 10:24:38 29° 98° (E) 10:27:34 436.750
Cosmos 2504 06 Dec 10:27:07 10:29:54 12° 297° (WNW) 10:32:39 435.465 / 435.565
DELFI C3 06 Dec 10:28:15 10:32:14 72° 102° (ESE) 10:36:13 145.870
AO-7 06 Dec 10:29:02 10:31:34 12° 7° (N) 10:34:07 29.400- 29.500
HUMSAT D 06 Dec 10:30:35 10:34:29 42° 98° (E) 10:38:22 437.325/437.525
AIST 2 06 Dec 10:31:33 10:35:30 40° 324° (NW) 10:39:29 435.215
CINEMA 3 06 Dec 10:34:57 10:36:00 11° 313° (NW) 10:37:02 145.822/145.860
ZACube-1 06 Dec 10:38:20 10:42:18 37° 294° (WNW) 10:46:10 437.345
BUGSAT 1 06 Dec 10:42:00 10:45:11 21° 59° (ENE) 10:48:23 437.445
FUNcube-1 06 Dec 10:46:08 10:50:00 34° 295° (WNW) 10:53:47 145.935
TIGRISAT 06 Dec 10:49:47 10:53:48 28° 266° (W) 10:57:49 435.000
ANTELSAT 06 Dec 10:51:22 10:55:18 26° 267° (W) 10:59:13 437.575/2403.000
CUBEBUG 2 06 Dec 10:51:42 10:54:31 17° 305° (NW) 10:57:17 437.445
BEESAT 3 06 Dec 10:55:29 10:58:03 16° 13° (NNE) 11:00:38 437.485
NANOSAT C BR1 06 Dec 10:56:52 11:01:05 61° 71° (ENE) 11:05:19 145.865
RS-15 06 Dec 11:01:19 11:13:13 57° 336° (NNW) 11:25:26 29.354- 29.394
HO-68 06 Dec 11:01:38 11:07:06 24° 314° (NW) 11:12:32 435.675
QB50P2 06 Dec 11:02:38 11:06:55 78° 74° (ENE) 11:11:14 145.880/145.840
POLYITAN 1 06 Dec 11:03:10 11:07:27 75° 73° (ENE) 11:11:46 437.675
AAUSAT CUBESAT 2 06 Dec 11:06:13 11:07:59 12° 306° (NW) 11:09:45 437.432
QB50P1 06 Dec 11:16:13 11:20:31 84° 257° (WSW) 11:24:50 145.935-145.965
Oscar 11 06 Dec 11:17:16 11:20:29 21° 301° (WNW) 11:23:42 145.826/435.025
JAS-2 06 Dec 11:17:29 11:23:44 67° 257° (WSW) 11:29:21 435.910
DUCHIFAT 1 06 Dec 11:19:02 11:23:19 90° 317° (NW) 11:27:37 145.980
CUSAT 1 06 Dec 11:19:48 11:21:20 14° 294° (WNW) 11:22:49 437.405
BEESAT 2 06 Dec 11:24:29 11:27:06 16° 12° (NNE) 11:29:43 435.950
AO-85 06 Dec 11:26:57 11:30:32 31° 239° (WSW) 11:34:00 145.980
Cosmos 2499 06 Dec 11:29:33 11:38:13 59° 71° (ENE) 11:46:18 435.465 / 435.565
UWE-3 06 Dec 11:35:48 11:36:41 11° 310° (NW) 11:37:35 435.000/436.395/437.385
POPSAT HIP 1 06 Dec 11:37:54 11:42:07 54° 260° (W) 11:46:21 437.405
Gurwin Techsat 1B 06 Dec 11:41:32 11:44:54 17° 51° (NE) 11:48:16 435.225
PCSat 06 Dec 11:43:17 11:48:02 32° 114° (ESE) 11:52:49 145.827
ESTCUBE 1 06 Dec 11:43:33 11:47:47 39° 97° (E) 11:52:02 437.505/2401.250
Oscar 19 06 Dec 11:44:06 11:48:22 27° 58° (ENE) 11:52:39 437.125/150
50 SAT 06 Dec 11:46:57 11:48:53 14° 90° (E) 11:50:48 437.505
AISAT 06 Dec 11:50:27 11:54:01 23° 92° (E) 11:57:33 437.250
GONETS M04 06 Dec 11:53:13 12:01:56 69° 75° (ENE) 12:10:39
DANDE 06 Dec 12:04:05 12:07:19 23° 290° (WNW) 12:10:00 436.750
DELFI C3 06 Dec 12:04:08 12:06:36 16° 302° (WNW) 12:09:04 145.870
HUMSAT D 06 Dec 12:06:34 12:09:56 25° 297° (WNW) 12:13:18 437.325/437.525
AIST 2 06 Dec 12:12:08 12:15:00 18° 347° (NNW) 12:17:54 435.215
AO-7 06 Dec 12:15:33 12:21:17 21° 34° (NE) 12:27:03 29.400- 29.500
BUGSAT 1 06 Dec 12:16:00 12:20:12 59° 259° (WSW) 12:24:27 437.445
CUBEBUG 1 06 Dec 12:16:00 12:20:22 50° 100° (E) 12:24:41 437.445
ITAMSAT 1 06 Dec 12:16:59 12:17:40 10° 43° (NE) 12:18:21 435.822/435.867
VELOX 1 06 Dec 12:26:55 12:31:14 44° 99° (E) 12:35:30 145.980
BEESAT 3 06 Dec 12:32:56 12:36:41 38° 35° (NE) 12:40:26 437.485
NANOSAT C BR1 06 Dec 12:34:11 12:37:12 19° 270° (W) 12:40:14 145.865
DX 1 06 Dec 12:40:13 12:44:15 34° 97° (E) 12:48:15 434.975-435.025
QB50P2 06 Dec 12:40:49 12:43:16 15° 272° (W) 12:45:44 145.880/145.840
POLYITAN 1 06 Dec 12:41:12 12:43:47 15° 272° (W) 12:46:21 437.675
UKube-1 06 Dec 12:47:20 12:51:12 30° 96° (E) 12:55:03 .
TISAT 1 06 Dec 12:48:10 12:49:03 11° 85° (E) 12:49:55 437.305
QB50P1 06 Dec 12:55:23 12:56:59 12° 275° (W) 12:58:35 145.935-145.965
DUCHIFAT 1 06 Dec 12:57:46 12:59:39 13° 274° (W) 13:01:31 145.980
SPROUT 06 Dec 12:59:41 13:03:58 64° 101° (E) 13:08:13 437.525
BEESAT 2 06 Dec 13:02:09 13:05:56 37° 35° (NE) 13:09:43 435.950
JAS-2 06 Dec 13:07:12 13:09:47 13° 276° (W) 13:12:18 435.910
RS-15 06 Dec 13:16:46 13:28:37 48° 8° (N) 13:40:28 29.354- 29.394
Gurwin Techsat 1B 06 Dec 13:18:45 13:24:04 76° 71° (ENE) 13:29:25 435.225
50 SAT 06 Dec 13:19:02 13:22:33 59° 288° (WNW) 13:26:04 437.505
ESTCUBE 1 06 Dec 13:20:32 13:24:32 32° 297° (WNW) 13:28:32 437.505/2401.250
Oscar 19 06 Dec 13:22:19 13:27:23 60° 258° (WSW) 13:32:30 437.125/150
Cosmos 2499 06 Dec 13:23:08 13:31:06 42° 275° (W) 13:38:37 435.465 / 435.565
PCSat 06 Dec 13:25:49 13:31:11 60° 315° (NW) 13:36:35 145.827
AISAT 06 Dec 13:26:24 13:30:47 53° 291° (WNW) 13:35:09 437.250
GONETS M04 06 Dec 13:50:39 13:58:12 35° 278° (W) 14:05:46
ITAMSAT 1 06 Dec 13:51:00 13:55:54 43° 64° (ENE) 14:00:49 435.822/435.867
AIST 2 06 Dec 13:52:07 13:54:57 17° 11° (NNE) 13:57:49 435.215
CUBEBUG 1 06 Dec 13:52:46 13:56:24 25° 299° (WNW) 14:00:02 437.445
M-CUBED/EXP-1 PRIME 06 Dec 14:02:43 14:04:37 12° 90° (E) 14:06:29 437.505
VELOX 1 06 Dec 14:03:42 14:07:32 28° 298° (WNW) 14:11:21 145.980
AO-7 06 Dec 14:04:25 14:12:26 56° 58° (ENE) 14:20:32 29.400- 29.500
BEESAT 3 06 Dec 14:10:37 14:14:23 40° 236° (SW) 14:18:07 437.485
DX 1 06 Dec 14:16:27 14:20:27 35° 296° (WNW) 14:24:26 434.975-435.025
SWISSCUBE 06 Dec 14:18:24 14:22:01 21° 91° (E) 14:25:38 437.505
TISAT 1 06 Dec 14:21:10 14:25:27 78° 104° (ESE) 14:29:39 437.305
BEESAT 06 Dec 14:22:27 14:26:03 21° 91° (E) 14:29:38 436.000
UKube-1 06 Dec 14:23:17 14:27:19 37° 295° (WNW) 14:31:19 .
SPROUT 06 Dec 14:36:22 14:39:31 20° 301° (WNW) 14:42:38 437.525
BEESAT 2 06 Dec 14:39:59 14:43:49 43° 236° (SW) 14:47:38 435.950
ITUPSAT 1 06 Dec 14:49:45 14:54:07 34° 96° (E) 14:58:26 437.325
Gurwin Techsat 1B 06 Dec 15:00:44 15:04:38 20° 271° (W) 15:08:32 435.225
AISAT 06 Dec 15:05:30 15:06:18 10° 311° (NW) 15:07:07 437.250
PCSat 06 Dec 15:11:21 15:15:40 23° 339° (NNW) 15:19:59 145.827
AUBIESAT-1 06 Dec 15:22:49 15:27:20 49° 105° (ESE) 15:31:41 437.475
GOMX 1 06 Dec 15:25:27 15:27:19 12° 47° (NE) 15:29:13 467.674
MOZHAYETS 4 06 Dec 15:26:54 15:30:32 23° 91° (E) 15:34:11
AIST 2 06 Dec 15:30:34 15:34:32 37° 35° (NE) 15:38:29 435.215
CUTE-I 06 Dec 15:30:37 15:32:03 11° 43° (NE) 15:33:27 437.470
ITAMSAT 1 06 Dec 15:30:40 15:35:28 36° 264° (W) 15:40:17 435.822/435.867
RS-15 06 Dec 15:30:49 15:43:18 75° 40° (NE) 15:55:32 29.354- 29.394
M-CUBED/EXP-1 PRIME 06 Dec 15:35:08 15:39:53 74° 110° (ESE) 15:44:28 437.505
NOAA 18 06 Dec 15:41:47 15:43:02 11° 40° (NE) 15:44:17 137.9125
BRITE-PL 06 Dec 15:47:58 15:51:47 29° 61° (ENE) 15:55:52 437.365/2234.400
NOAA 15 06 Dec 15:50:47 15:53:48 16° 49° (NE) 15:56:51 137.62
Cubesat XI-IV 06 Dec 15:54:34 15:57:40 16° 49° (NE) 16:00:46 437.490
SWISSCUBE 06 Dec 15:55:31 16:00:14 63° 290° (WNW) 16:04:56 437.505
KKS-1 06 Dec 15:55:56 15:59:12 19° 90° (E) 16:02:27 437.445
Cosmos 2491 06 Dec 15:57:05 16:03:01 19° 45° (NE) 16:08:55 435.465 / 435.565
AO-7 06 Dec 15:57:31 16:05:26 47° 260° (W) 16:13:26 29.400- 29.500
TISAT 1 06 Dec 15:57:51 16:00:34 17° 304° (NW) 16:03:17 437.305
BEESAT 06 Dec 15:59:32 16:04:16 63° 290° (WNW) 16:08:57 436.000
STARS 06 Dec 16:02:43 16:04:10 11° 85° (E) 16:05:37 437.465
HORYU 2 06 Dec 16:13:34 16:17:46 41° 66° (ENE) 16:21:59 437.375
HO-68 06 Dec 16:18:02 16:21:20 14° 33° (NNE) 16:24:37 435.675
O/OREOS (USA 219) 06 Dec 16:25:47 16:30:04 42° 110° (ESE) 16:34:22 437.305
ITUPSAT 1 06 Dec 16:27:35 16:32:01 39° 295° (WNW) 16:36:25 437.325
CINEMA 3 06 Dec 16:52:30 16:53:41 11° 47° (NE) 16:54:54 145.822/145.860
LilacSat-2 06 Dec 16:57:15 17:00:36 29° 65° (ENE) 17:03:56 437.200
PCSat 06 Dec 16:57:18 17:00:59 18° 5° (N) 17:04:40 145.827
AUBIESAT-1 06 Dec 16:57:29 17:01:32 30° 305° (NW) 17:05:28 437.475
GOMX 1 06 Dec 16:59:42 17:04:17 56° 69° (ENE) 17:09:15 467.674
MOZHAYETS 4 06 Dec 17:03:34 17:08:01 53° 291° (WNW) 17:12:26
CUTE-I 06 Dec 17:05:47 17:10:51 45° 65° (ENE) 17:15:57 437.470
CUBESAT XI-V 06 Dec 17:06:48 17:11:04 34° 96° (E) 17:15:20 437.345
ISS 06 Dec 17:08:46 17:11:15 20° 146° (SE) 17:13:44 145.825
DOVE 4 06 Dec 17:09:02 17:13:30 35° 63° (ENE) 17:18:11 437.250
AIST 2 06 Dec 17:09:04 17:13:08 46° 235° (SW) 17:17:10 435.215
M-CUBED/EXP-1 PRIME 06 Dec 17:10:14 17:13:52 23° 309° (NW) 17:17:28 437.505
NOAA 18 06 Dec 17:17:11 17:22:20 41° 62° (ENE) 17:27:32 137.9125
BRITE-PL 06 Dec 17:25:56 17:30:07 43° 263° (W) 17:34:39 437.365/2234.400
NOAA 15 06 Dec 17:27:31 17:32:44 69° 70° (ENE) 17:37:58 137.62
Cubesat XI-IV 06 Dec 17:31:31 17:36:51 67° 70° (ENE) 17:42:12 437.490
KKS-1 06 Dec 17:31:43 17:36:12 63° 289° (WNW) 17:40:37 437.445
SWISSCUBE 06 Dec 17:35:04 17:37:09 13° 311° (NW) 17:39:14 437.505
STARS 06 Dec 17:36:50 17:41:18 79° 104° (ESE) 17:45:43 437.465
BEESAT 06 Dec 17:39:03 17:41:11 13° 310° (NW) 17:43:19 436.000
RS-15 06 Dec 17:43:49 17:55:21 49° 247° (WSW) 18:06:37 29.354- 29.394
HORYU 2 06 Dec 17:50:30 17:54:26 30° 265° (W) 17:58:24 437.375
Cosmos 2491 06 Dec 17:53:25 18:02:04 62° 72° (ENE) 18:10:41 435.465 / 435.565
AO-7 06 Dec 17:59:55 18:00:35 10° 284° (WNW) 18:01:14 29.400- 29.500
HO-68 06 Dec 18:00:41 18:07:13 40° 56° (ENE) 18:13:48 435.675
O/OREOS (USA 219) 06 Dec 18:05:26 18:09:35 34° 311° (NW) 18:13:45 437.305
CINEMA 3 06 Dec 18:24:55 18:29:42 48° 68° (ENE) 18:34:32 145.822/145.860
CUTE 1.7 + AOD 2 06 Dec 18:27:54 18:31:35 30° 64° (ENE) 18:35:16 437.475
YUBILEINY 06 Dec 18:28:54 18:36:24 34° 81° (E) 18:43:57 435.215
LilacSat-2 06 Dec 18:31:21 18:34:51 32° 264° (W) 18:38:20 437.200
GOMX 1 06 Dec 18:38:57 18:42:46 24° 271° (W) 18:46:51 467.674
FUNcube-1 06 Dec 18:39:13 18:39:28 10° 50° (NE) 18:39:44 145.935
PCSat 06 Dec 18:41:20 18:46:06 30° 30° (NNE) 18:50:52 145.827
CUBEBUG 2 06 Dec 18:41:53 18:45:36 23° 60° (ENE) 18:49:17 437.445
MOZHAYETS 4 06 Dec 18:43:25 18:44:13 10° 311° (NW) 18:45:02
ISS 06 Dec 18:44:04 18:47:20 57° 165° (SSE) 18:50:36 145.825
CUBESAT XI-V 06 Dec 18:44:12 18:48:29 37° 295° (WNW) 18:52:46 437.345
CANX-2 06 Dec 18:45:31 18:49:34 48° 69° (ENE) 18:53:39 2200.000
CUTE-I 06 Dec 18:46:07 18:51:02 36° 264° (W) 18:55:58 437.470
DOVE 4 06 Dec 18:46:28 18:51:07 42° 264° (W) 18:56:02 437.250
AAUSAT CUBESAT 2 06 Dec 18:50:28 18:53:33 21° 61° (ENE) 18:56:39 437.432
NOAA 18 06 Dec 18:57:48 19:03:01 42° 262° (W) 19:08:18 137.9125
Oscar 11 06 Dec 19:06:46 19:09:21 16° 56° (NE) 19:11:54 145.826/435.025
NOAA 15 06 Dec 19:09:00 19:13:02 22° 270° (W) 19:17:04 137.62
KKS-1 06 Dec 19:10:11 19:11:55 12° 310° (NW) 19:13:38 437.445
SEEDS 06 Dec 19:10:12 19:14:14 51° 70° (ENE) 19:18:18 437.485
Cubesat XI-IV 06 Dec 19:13:09 19:17:25 23° 269° (W) 19:21:41 437.490
STARS 06 Dec 19:14:10 19:17:08 18° 304° (NW) 19:20:05 437.465
STRAND 1 06 Dec 19:14:41 19:19:02 27° 93° (E) 19:23:22 437.568
COMPASS 1 06 Dec 19:20:01 19:23:57 45° 69° (ENE) 19:27:54 437.405
Cosmos 2504 06 Dec 19:22:21 19:29:51 36° 82° (E) 19:37:38 435.465 / 435.565
UWE-3 06 Dec 19:23:00 19:27:11 34° 65° (ENE) 19:31:18 435.000/436.395/437.385
AIST 1 06 Dec 19:31:33 19:35:07 26° 88° (E) 19:38:44
DELFI C3 06 Dec 19:47:00 19:48:56 13° 56° (NE) 19:50:54 145.870
HO-68 06 Dec 19:47:42 19:54:45 59° 258° (WSW) 20:01:53 435.675
O/OREOS (USA 219) 06 Dec 19:49:34 19:50:26 10° 335° (NNW) 19:51:18 437.305
Cosmos 2491 06 Dec 19:50:44 19:58:35 40° 276° (W) 20:06:25 435.465 / 435.565
HUMSAT D 06 Dec 19:55:18 19:56:20 11° 52° (NE) 19:57:21 437.325/437.525
CUSAT 1 06 Dec 20:00:06 20:03:15 38° 74° (ENE) 20:07:13 437.405
RS-15 06 Dec 20:00:12 20:04:22 12° 272° (W) 20:08:31 29.354- 29.394
CINEMA 3 06 Dec 20:02:38 20:07:00 30° 267° (W) 20:11:27 145.822/145.860
ZACube-1 06 Dec 20:02:58 20:07:20 49° 69° (ENE) 20:11:39 437.345
SO-50 06 Dec 20:03:15 20:06:52 22° 116° (ESE) 20:10:26 436.795
CUTE 1.7 + AOD 2 06 Dec 20:03:27 20:07:21 36° 264° (W) 20:11:17 437.475
FUNcube-1 06 Dec 20:10:24 20:14:48 53° 70° (ENE) 20:19:08 145.935
CUBEBUG 2 06 Dec 20:17:10 20:21:52 61° 259° (WSW) 20:26:33 437.445
ISS 06 Dec 20:20:25 20:23:44 73° 186° (S) 20:27:03 145.825
CANX-2 06 Dec 20:22:21 20:25:41 22° 268° (W) 20:29:02 2200.000
YUBILEINY 06 Dec 20:23:54 20:32:36 71° 285° (WNW) 20:41:24 435.215
PCSat 06 Dec 20:24:40 20:30:09 86° 233° (SW) 20:35:35 145.827
AAUSAT CUBESAT 2 06 Dec 20:24:42 20:28:43 54° 260° (W) 20:32:47 437.432
Oscar 11 06 Dec 20:40:34 20:44:53 87° 250° (WSW) 20:49:15 145.826/435.025
SEEDS 06 Dec 20:47:05 20:50:13 21° 269° (W) 20:53:24 437.485
DANDE 06 Dec 20:50:52 20:53:14 27° 71° (ENE) 20:55:52 436.750
STRAND 1 06 Dec 20:53:32 20:58:31 53° 293° (WNW) 21:03:28 437.568
COMPASS 1 06 Dec 20:56:25 20:59:43 23° 268° (W) 21:03:03 437.405
UWE-3 06 Dec 20:59:16 21:03:36 38° 263° (W) 21:07:54 435.000/436.395/437.385
AIST 1 06 Dec 21:08:25 21:12:31 41° 288° (WNW) 21:16:42
Cosmos 2504 06 Dec 21:14:13 21:22:42 69° 286° (WNW) 21:31:38 435.465 / 435.565
ESTCUBE 1 06 Dec 21:14:50 21:16:55 13° 52° (NE) 21:19:01 437.505/2401.250
DELFI C3 06 Dec 21:19:14 21:23:10 88° 247° (WSW) 21:27:08 145.870
PRISM 06 Dec 21:23:35 21:27:23 33° 97° (E) 21:31:10 437.425
HUMSAT D 06 Dec 21:27:00 21:31:10 64° 72° (ENE) 21:35:18 437.325/437.525
ZACube-1 06 Dec 21:40:07 21:43:51 25° 268° (W) 21:47:34 437.345
HO-68 06 Dec 21:40:54 21:44:06 13° 280° (W) 21:47:19 435.675
SO-50 06 Dec 21:42:08 21:46:54 78° 315° (NW) 21:51:36 436.795
CUSAT 1 06 Dec 21:42:29 21:45:04 19° 265° (W) 21:48:05 437.405
CUBEBUG 1 06 Dec 21:43:39 21:46:06 15° 54° (NE) 21:48:35 437.445
FUNcube-1 06 Dec 21:47:44 21:51:18 23° 268° (W) 21:54:52 145.935
VELOX 1 06 Dec 21:55:51 21:58:14 14° 53° (NE) 22:00:38 145.980
ISS 06 Dec 21:56:57 22:00:01 35° 205° (SSW) 22:03:05 145.825
UNISAT 6 06 Dec 22:05:05 22:08:44 24° 92° (E) 22:12:19 437.425
DX 1 06 Dec 22:08:33 22:10:00 11° 50° (NE) 22:11:28 434.975-435.025
PCSat 06 Dec 22:09:12 22:12:48 18° 253° (WSW) 22:16:23 145.827
UKube-1 06 Dec 22:15:35 22:16:11 10° 49° (NE) 22:16:47 .
Oscar 11 06 Dec 22:19:57 22:21:43 12° 275° (W) 22:23:30 145.826/435.025
SPROUT 06 Dec 22:24:40 22:27:23 17° 56° (ENE) 22:30:07 437.525
YUBILEINY 06 Dec 22:24:52 22:31:18 22° 311° (NW) 22:37:50 435.215
50 SAT 06 Dec 22:27:57 22:30:10 16° 60° (ENE) 22:32:23 437.505
DANDE 06 Dec 22:34:14 22:35:46 14° 266° (W) 22:37:24 436.750
TIGRISAT 06 Dec 22:34:36 22:38:50 42° 98° (E) 22:42:56 435.000
STRAND 1 06 Dec 22:34:42 22:36:39 12° 314° (NW) 22:38:36 437.568
ANTELSAT 06 Dec 22:36:11 22:40:28 45° 98° (E) 22:44:38 437.575/2403.000
ESTCUBE 1 06 Dec 22:48:31 22:52:58 72° 73° (ENE) 22:57:27 437.505/2401.250
AISAT 06 Dec 22:53:02 22:57:11 41° 66° (ENE) 23:01:23 437.250
QB50P1 06 Dec 22:57:16 22:58:24 11° 85° (E) 22:59:32 145.935-145.965
DELFI C3 06 Dec 22:57:40 22:58:38 11° 274° (W) 22:59:36 145.870
PRISM 06 Dec 22:58:57 23:02:39 32° 296° (WNW) 23:06:22 437.425
HUMSAT D 06 Dec 23:04:25 23:07:11 17° 270° (W) 23:09:58 437.325/437.525
GONETS M04 06 Dec 23:10:05 23:14:52 16° 69° (ENE) 23:19:39
Cosmos 2504 06 Dec 23:11:37 23:18:04 22° 312° (NW) 23:24:40 435.465 / 435.565
O/OREOS (USA 219) 06 Dec 23:12:38 23:14:01 11° 27° (NNE) 23:15:24 437.305
CUBEBUG 1 06 Dec 23:17:21 23:21:44 85° 70° (ENE) 23:26:11 437.445
POPSAT HIP 1 06 Dec 23:17:30 23:20:18 17° 89° (E) 23:23:04 437.405
SO-50 06 Dec 23:24:03 23:28:02 26° 337° (NNW) 23:31:58 436.795
VELOX 1 06 Dec 23:29:35 23:34:00 80° 73° (ENE) 23:38:29 145.980
DX 1 06 Dec 23:41:03 23:45:21 62° 70° (ENE) 23:49:42 434.975-435.025
UNISAT 6 06 Dec 23:41:25 23:45:42 47° 292° (WNW) 23:49:53 437.425
TISAT 1 06 Dec 23:44:07 23:47:08 19° 58° (ENE) 23:50:09 437.305
UKube-1 06 Dec 23:47:06 23:51:19 55° 69° (ENE) 23:55:34 .
BUGSAT 1 06 Dec 23:53:06 23:55:23 14° 87° (E) 23:57:38 437.445
SWISSCUBE 06 Dec 23:57:48 23:57:59 10° 46° (NE) 23:58:10 437.505
SPROUT 06 Dec 23:58:27 00:02:47 81° 257° (WSW) 00:07:08 437.525
50 SAT 06 Dec 23:59:39 00:03:06 56° 258° (WSW) 00:06:36 437.505
JAS-2 07 Dec 00:04:47 00:09:57 61° 102° (ESE) 00:15:13 435.910
NANOSAT C BR1 07 Dec 00:10:52 00:15:00 48° 100° (E) 00:19:06 145.865
TIGRISAT 07 Dec 00:11:34 00:15:24 29° 298° (WNW) 00:19:08 435.000
Cosmos 2499 07 Dec 00:12:41 00:20:32 40° 84° (E) 00:28:36 435.465 / 435.565
ANTELSAT 07 Dec 00:13:15 00:16:59 27° 299° (WNW) 00:20:38 437.575/2403.000
QB50P2 07 Dec 00:17:16 00:21:32 64° 102° (ESE) 00:25:44 145.880/145.840
POLYITAN 1 07 Dec 00:17:48 00:22:02 61° 101° (ESE) 00:26:13 437.675
ITUPSAT 1 07 Dec 00:26:58 00:29:41 15° 52° (NE) 00:32:23 437.325
ESTCUBE 1 07 Dec 00:27:21 00:30:17 17° 271° (W) 00:33:14 437.505/2401.250
AISAT 07 Dec 00:29:54 00:33:46 29° 265° (W) 00:37:42 437.250
QB50P1 07 Dec 00:30:37 00:34:55 80° 103° (ESE) 00:39:10 145.935-145.965
DUCHIFAT 1 07 Dec 00:32:43 00:36:58 73° 102° (ESE) 00:41:10 145.980
AUBIESAT-1 07 Dec 00:40:14 00:43:48 25° 53° (NE) 00:47:31 437.475
O/OREOS (USA 219) 07 Dec 00:50:33 00:54:46 38° 51° (NE) 00:58:57 437.305
POPSAT HIP 1 07 Dec 00:52:17 00:56:32 66° 288° (WNW) 01:00:43 437.405
M-CUBED/EXP-1 PRIME 07 Dec 00:52:32 00:56:27 35° 57° (ENE) 01:00:37 437.505
CUBEBUG 1 07 Dec 00:56:21 00:58:39 14° 273° (W) 01:00:58 437.445
GONETS M04 07 Dec 01:01:20 01:09:53 63° 93° (E) 01:18:26
SO-50 07 Dec 01:06:36 01:09:55 19° 2° (N) 01:13:12 436.795
VELOX 1 07 Dec 01:08:31 01:11:04 15° 272° (W) 01:13:38 145.980
TISAT 1 07 Dec 01:18:07 01:22:21 67° 257° (WSW) 01:26:37 437.305
DX 1 07 Dec 01:18:51 01:21:57 19° 269° (W) 01:25:06 434.975-435.025
UKube-1 07 Dec 01:24:24 01:27:41 21° 268° (W) 01:31:00 .
BUGSAT 1 07 Dec 01:27:04 01:31:20 79° 285° (WNW) 01:35:29 437.445
Oscar 19 07 Dec 01:27:48 01:32:25 32° 94° (E) 01:37:03 437.125/150
Gurwin Techsat 1B 07 Dec 01:29:39 01:33:27 19° 88° (E) 01:37:13 435.225
SWISSCUBE 07 Dec 01:30:09 01:34:42 47° 67° (ENE) 01:39:17 437.505
BEESAT 07 Dec 01:34:07 01:38:41 46° 66° (ENE) 01:43:15 436.000
SPROUT 07 Dec 01:38:00 01:39:26 11° 275° (W) 01:40:53 437.525
AO-85 07 Dec 01:46:51 01:50:13 19° 115° (ESE) 01:53:25 145.980
NANOSAT C BR1 07 Dec 01:47:04 01:50:30 24° 299° (WNW) 01:53:53 145.865
JAS-2 07 Dec 01:50:34 01:54:46 25° 303° (WNW) 01:59:00 435.910
QB50P2 07 Dec 01:53:52 01:56:56 20° 302° (WNW) 01:59:59 145.880/145.840
POLYITAN 1 07 Dec 01:54:20 01:57:28 20° 301° (WNW) 02:00:35 437.675
ITUPSAT 1 07 Dec 02:02:00 02:06:47 76° 72° (ENE) 02:11:34 437.325
Cosmos 2499 07 Dec 02:04:42 02:13:19 64° 287° (WNW) 02:22:13 435.465 / 435.565
QB50P1 07 Dec 02:07:29 02:10:10 16° 304° (NW) 02:12:49 145.935-145.965
DUCHIFAT 1 07 Dec 02:09:22 02:12:11 17° 303° (WNW) 02:14:58 145.980
AUBIESAT-1 07 Dec 02:13:41 02:17:52 57° 253° (WSW) 02:22:21 437.475
